Time,TemperatureF,DewpointF,PressureIn,WindDirection,WindDirectionDegrees,WindSpeedMPH,WindSpeedGustMPH,Humidity,HourlyPrecipIn,Conditions,Clouds,dailyrainin,SoftwareType,DateUTC
2013-02-18 00:01:00,43.0,38.0,29.97,SE,124,0.0,1.0,83,0.00,,,0.00,,2013-02-18 08:01:00,
2013-02-18 00:11:00,43.0,38.0,29.97,SE,124,0.0,0.0,84,0.00,,,0.00,,2013-02-18 08:11:00,
2013-02-18 00:21:00,43.0,38.0,29.97,SE,124,0.0,0.0,84,0.00,,,0.00,,2013-02-18 08:21:00,
2013-02-18 00:32:00,42.0,38.0,29.98,SE,124,0.0,0.0,84,0.00,,,0.00,,2013-02-18 08:32:00,
2013-02-18 00:41:00,42.0,38.0,29.98,SE,124,0.0,0.0,84,0.00,,,0.00,,2013-02-18 08:41:00,
2013-02-18 00:52:00,42.0,38.0,29.98,SE,124,0.0,0.0,86,0.00,,,0.00,,2013-02-18 08:52:00,
2013-02-18 01:02:00,42.0,38.0,29.98,SE,124,0.0,0.0,84,0.00,,,0.00,,2013-02-18 09:02:00,
2013-02-18 01:11:00,42.0,38.0,29.98,SE,124,0.0,0.0,84,0.00,,,0.00,,2013-02-18 09:11:00,
2013-02-18 01:22:00,41.0,38.0,29.98,SE,127,0.0,1.0,88,0.00,,,0.00,,2013-02-18 09:22:00,
2013-02-18 01:31:00,41.0,38.0,29.98,SE,127,0.0,0.0,89,0.00,,,0.00,,2013-02-18 09:31:00,
2013-02-18 01:41:00,41.0,38.0,29.98,SE,127,0.0,0.0,89,0.00,,,0.00,,2013-02-18 09:41:00,
2013-02-18 01:51:00,41.0,38.0,29.98,SE,124,0.0,1.0,88,0.00,,,0.00,,2013-02-18 09:51:00,
2013-02-18 02:01:00,41.0,38.0,29.98,SE,127,0.0,2.0,89,0.00,,,0.00,,2013-02-18 10:01:00,
2013-02-18 02:11:00,41.0,38.0,29.98,SE,127,0.0,2.0,89,0.00,,,0.00,,2013-02-18 10:11:00,
2013-02-18 02:21:00,40.0,37.0,29.98,SE,134,1.0,2.0,89,0.00,,,0.00,,2013-02-18 10:21:00,
2013-02-18 02:31:00,40.0,37.0,29.98,SE,129,0.0,1.0,90,0.00,,,0.00,,2013-02-18 10:31:00,
2013-02-18 02:41:00,40.0,37.0,29.98,SE,129,0.0,1.0,90,0.00,,,0.00,,2013-02-18 10:41:00,
2013-02-18 02:51:00,40.0,37.0,29.99,SE,130,0.0,0.0,90,0.00,,,0.00,,2013-02-18 10:51:00,
2013-02-18 03:01:00,40.0,37.0,29.98,ESE,122,0.0,2.0,90,0.00,,,0.00,,2013-02-18 11:01:00,
2013-02-18 03:11:00,40.0,37.0,29.98,ESE,122,0.0,2.0,90,0.00,,,0.00,,2013-02-18 11:11:00,
2013-02-18 03:21:00,40.0,38.0,29.98,SE,124,0.0,2.0,91,0.00,,,0.00,,2013-02-18 11:21:00,
2013-02-18 03:32:00,40.0,37.0,29.97,ESE,120,0.0,2.0,90,0.00,,,0.00,,2013-02-18 11:32:00,
2013-02-18 03:41:00,40.0,37.0,29.97,ESE,120,0.0,2.0,90,0.00,,,0.00,,2013-02-18 11:41:00,
2013-02-18 03:52:00,39.0,36.0,29.96,SE,129,0.0,2.0,90,0.00,,,0.00,,2013-02-18 11:52:00,
2013-02-18 04:01:00,39.0,37.0,29.97,SSE,159,0.0,1.0,91,0.00,,,0.00,,2013-02-18 12:01:00,
2013-02-18 04:11:00,39.0,37.0,29.97,SSE,159,0.0,1.0,91,0.00,,,0.00,,2013-02-18 12:11:00,
2013-02-18 04:21:00,38.0,36.0,29.97,SE,135,0.0,1.0,92,0.00,,,0.00,,2013-02-18 12:21:00,
2013-02-18 04:32:00,39.0,37.0,29.97,SE,127,1.0,2.0,92,0.00,,,0.00,,2013-02-18 12:32:00,
2013-02-18 04:41:00,39.0,37.0,29.97,SE,127,1.0,2.0,92,0.00,,,0.00,,2013-02-18 12:41:00,
2013-02-18 04:52:00,39.0,37.0,29.97,SE,129,0.0,1.0,92,0.00,,,0.00,,2013-02-18 12:52:00,
2013-02-18 05:02:00,39.0,37.0,29.97,SE,127,0.0,1.0,91,0.00,,,0.00,,2013-02-18 13:02:00,
2013-02-18 05:11:00,39.0,37.0,29.97,SE,127,0.0,1.0,91,0.00,,,0.00,,2013-02-18 13:11:00,
2013-02-18 05:32:00,39.0,37.0,29.97,ESE,112,0.0,2.0,91,0.00,,,0.00,,2013-02-18 13:32:00,
2013-02-18 05:41:00,39.0,37.0,29.97,ESE,112,0.0,2.0,91,0.00,,,0.00,,2013-02-18 13:41:00,
2013-02-18 05:52:00,39.0,37.0,29.97,ESE,119,0.0,2.0,91,0.00,,,0.00,,2013-02-18 13:52:00,
2013-02-18 06:02:00,38.0,36.0,29.97,ESE,118,0.0,0.0,92,0.00,,,0.00,,2013-02-18 14:02:00,
2013-02-18 06:11:00,38.0,36.0,29.97,ESE,118,0.0,0.0,92,0.00,,,0.00,,2013-02-18 14:11:00,
2013-02-18 06:21:00,39.0,37.0,29.97,SE,141,0.0,2.0,92,0.00,,,0.00,,2013-02-18 14:21:00,
2013-02-18 06:32:00,38.0,36.0,29.98,SE,139,0.0,1.0,92,0.00,,,0.00,,2013-02-18 14:32:00,
2013-02-18 06:41:00,38.0,36.0,29.98,SE,139,0.0,1.0,92,0.00,,,0.00,,2013-02-18 14:41:00,
2013-02-18 06:52:00,38.0,36.0,29.98,SE,127,0.0,1.0,93,0.00,,,0.00,,2013-02-18 14:52:00,
2013-02-18 07:01:00,38.0,36.0,29.99,SE,129,0.0,1.0,93,0.00,,,0.00,,2013-02-18 15:01:00,
2013-02-18 07:11:00,38.0,36.0,29.99,SE,129,0.0,1.0,93,0.00,,,0.00,,2013-02-18 15:11:00,
2013-02-18 07:21:00,39.0,37.0,29.99,SE,131,0.0,1.0,92,0.00,,,0.00,,2013-02-18 15:21:00,
2013-02-18 07:31:00,40.0,38.0,29.99,ESE,123,1.0,3.0,92,0.00,,,0.00,,2013-02-18 15:31:00,
2013-02-18 07:41:00,40.0,38.0,29.99,ESE,123,1.0,3.0,92,0.00,,,0.00,,2013-02-18 15:41:00,
2013-02-18 07:51:00,40.0,37.0,29.99,SE,131,0.0,2.0,90,0.00,,,0.00,,2013-02-18 15:51:00,
2013-02-18 08:01:00,40.0,38.0,29.99,SE,129,0.0,1.0,91,0.00,,,0.00,,2013-02-18 16:01:00,
2013-02-18 08:11:00,40.0,38.0,29.99,SE,129,0.0,1.0,91,0.00,,,0.00,,2013-02-18 16:11:00,
2013-02-18 08:21:00,42.0,40.0,30.00,SE,126,0.0,1.0,91,0.00,,,0.00,,2013-02-18 16:21:00,
2013-02-18 08:32:00,44.0,42.0,30.00,SSE,157,0.0,4.0,91,0.00,,,0.00,,2013-02-18 16:32:00,
2013-02-18 08:41:00,44.0,42.0,30.00,SSE,157,0.0,4.0,91,0.00,,,0.00,,2013-02-18 16:41:00,
2013-02-18 08:51:00,47.0,43.0,30.01,WSW,245,5.0,8.0,87,0.00,,,0.00,,2013-02-18 16:51:00,
2013-02-18 09:02:00,48.0,44.0,30.00,WSW,239,3.0,9.0,85,0.00,,,0.00,,2013-02-18 17:02:00,
2013-02-18 09:11:00,48.0,44.0,30.00,WSW,239,3.0,9.0,85,0.00,,,0.00,,2013-02-18 17:11:00,
2013-02-18 09:21:00,49.0,44.0,30.00,WSW,243,4.0,9.0,83,0.00,,,0.00,,2013-02-18 17:21:00,
2013-02-18 09:32:00,49.0,44.0,30.00,West,259,4.0,8.0,82,0.00,,,0.00,,2013-02-18 17:32:00,
2013-02-18 09:41:00,49.0,44.0,30.00,West,259,4.0,8.0,82,0.00,,,0.00,,2013-02-18 17:41:00,
2013-02-18 09:52:00,51.0,45.0,30.00,SW,218,3.0,8.0,81,0.00,,,0.00,,2013-02-18 17:52:00,
2013-02-18 10:01:00,52.0,45.0,30.00,WSW,255,5.0,8.0,77,0.00,,,0.00,,2013-02-18 18:01:00,
2013-02-18 10:11:00,52.0,45.0,30.00,WSW,255,5.0,8.0,77,0.00,,,0.00,,2013-02-18 18:11:00,
2013-02-18 10:22:00,52.0,44.0,30.00,SW,236,4.0,9.0,75,0.00,,,0.00,,2013-02-18 18:22:00,
2013-02-18 10:41:00,52.0,45.0,30.00,SE,135,3.0,9.0,76,0.00,,,0.00,,2013-02-18 18:41:00,
2013-02-18 10:52:00,55.0,46.0,29.99,SE,124,2.0,6.0,71,0.00,,,0.00,,2013-02-18 18:52:00,
2013-02-18 11:02:00,55.0,45.0,29.99,SSW,200,3.0,8.0,69,0.00,,,0.00,,2013-02-18 19:02:00,
2013-02-18 11:11:00,55.0,45.0,29.99,SSW,200,3.0,8.0,69,0.00,,,0.00,,2013-02-18 19:11:00,
2013-02-18 11:21:00,56.0,46.0,29.99,SW,233,2.0,5.0,68,0.00,,,0.00,,2013-02-18 19:21:00,
2013-02-18 11:32:00,56.0,46.0,29.99,South,172,4.0,8.0,69,0.00,,,0.00,,2013-02-18 19:32:00,
2013-02-18 11:41:00,56.0,46.0,29.99,South,172,4.0,8.0,69,0.00,,,0.00,,2013-02-18 19:41:00,
2013-02-18 11:51:00,57.0,46.0,29.98,SSW,198,3.0,7.0,66,0.00,,,0.00,,2013-02-18 19:51:00,
2013-02-18 12:01:00,58.0,46.0,29.98,West,278,3.0,8.0,64,0.00,,,0.00,,2013-02-18 20:01:00,
2013-02-18 12:11:00,58.0,46.0,29.98,West,278,3.0,8.0,64,0.00,,,0.00,,2013-02-18 20:11:00,
2013-02-18 12:21:00,59.0,46.0,29.97,WSW,252,2.0,6.0,61,0.00,,,0.00,,2013-02-18 20:21:00,
2013-02-18 12:32:00,58.0,45.0,29.96,West,267,5.0,11.0,62,0.00,,,0.00,,2013-02-18 20:32:00,
2013-02-18 12:41:00,58.0,45.0,29.96,West,267,5.0,11.0,62,0.00,,,0.00,,2013-02-18 20:41:00,
2013-02-18 12:52:00,58.0,45.0,29.95,South,172,3.0,10.0,62,0.00,,,0.00,,2013-02-18 20:52:00,
2013-02-18 13:02:00,59.0,46.0,29.95,SSE,153,4.0,10.0,62,0.00,,,0.00,,2013-02-18 21:02:00,
2013-02-18 13:11:00,59.0,46.0,29.95,SSE,153,4.0,10.0,62,0.00,,,0.00,,2013-02-18 21:11:00,
2013-02-18 13:21:00,58.0,45.0,29.95,WSW,255,5.0,14.0,62,0.00,,,0.00,,2013-02-18 21:21:00,
2013-02-18 13:32:00,58.0,45.0,29.94,West,262,4.0,11.0,62,0.00,,,0.00,,2013-02-18 21:32:00,
2013-02-18 13:41:00,58.0,45.0,29.94,West,262,4.0,11.0,62,0.00,,,0.00,,2013-02-18 21:41:00,
2013-02-18 13:51:00,57.0,44.0,29.92,WSW,241,3.0,12.0,62,0.00,,,0.00,,2013-02-18 21:51:00,
2013-02-18 14:11:00,58.0,44.0,29.91,SW,224,4.0,9.0,60,0.00,,,0.00,,2013-02-18 22:11:00,
2013-02-18 14:21:00,58.0,44.0,29.91,SW,224,4.0,9.0,60,0.00,,,0.00,,2013-02-18 22:21:00,
2013-02-18 14:32:00,56.0,43.0,29.91,West,259,5.0,12.0,62,0.00,,,0.00,,2013-02-18 22:32:00,
2013-02-18 14:41:00,56.0,43.0,29.91,West,259,5.0,12.0,62,0.00,,,0.00,,2013-02-18 22:41:00,
2013-02-18 14:52:00,56.0,43.0,29.90,WSW,242,7.0,14.0,61,0.00,,,0.00,,2013-02-18 22:52:00,
2013-02-18 15:01:00,57.0,44.0,29.91,SW,236,5.0,13.0,61,0.00,,,0.00,,2013-02-18 23:01:00,
2013-02-18 15:11:00,57.0,44.0,29.91,SW,236,5.0,13.0,61,0.00,,,0.00,,2013-02-18 23:11:00,
2013-02-18 15:21:00,56.0,43.0,29.91,SSW,210,8.0,14.0,61,0.00,,,0.00,,2013-02-18 23:21:00,
2013-02-18 15:32:00,55.0,43.0,29.91,West,263,5.0,15.0,63,0.00,,,0.00,,2013-02-18 23:32:00,
2013-02-18 15:41:00,55.0,43.0,29.91,West,263,5.0,15.0,63,0.00,,,0.00,,2013-02-18 23:41:00,
2013-02-18 15:52:00,55.0,43.0,29.90,WSW,257,5.0,11.0,63,0.00,,,0.00,,2013-02-18 23:52:00,
2013-02-18 16:02:00,54.0,42.0,29.90,SW,228,8.0,16.0,63,0.00,,,0.00,,2013-02-19 00:02:00,
2013-02-18 16:11:00,54.0,42.0,29.90,SW,228,8.0,16.0,63,0.00,,,0.00,,2013-02-19 00:11:00,
2013-02-18 16:21:00,54.0,42.0,29.90,WSW,255,6.0,16.0,64,0.00,,,0.00,,2013-02-19 00:21:00,
2013-02-18 16:41:00,53.0,41.0,29.90,WSW,246,7.0,15.0,64,0.00,,,0.00,,2013-02-19 00:41:00,
2013-02-18 16:52:00,53.0,41.0,29.90,WSW,246,5.0,14.0,64,0.00,,,0.00,,2013-02-19 00:52:00,
2013-02-18 17:02:00,52.0,40.0,29.90,WSW,253,7.0,14.0,64,0.00,,,0.00,,2013-02-19 01:02:00,
2013-02-18 17:11:00,52.0,40.0,29.90,WSW,253,7.0,14.0,64,0.00,,,0.00,,2013-02-19 01:11:00,
2013-02-18 17:21:00,52.0,41.0,29.90,WSW,240,8.0,15.0,65,0.00,,,0.00,,2013-02-19 01:21:00,
2013-02-18 17:32:00,52.0,41.0,29.90,SW,234,5.0,17.0,67,0.00,,,0.00,,2013-02-19 01:32:00,
2013-02-18 17:42:00,52.0,41.0,29.90,SW,234,5.0,17.0,67,0.00,,,0.00,,2013-02-19 01:42:00,
2013-02-18 17:52:00,51.0,40.0,29.90,SW,218,4.0,12.0,67,0.00,,,0.00,,2013-02-19 01:52:00,
2013-02-18 18:02:00,51.0,41.0,29.90,SSW,210,5.0,12.0,68,0.00,,,0.00,,2013-02-19 02:02:00,
2013-02-18 18:11:00,51.0,41.0,29.90,SSW,210,5.0,12.0,68,0.00,,,0.00,,2013-02-19 02:11:00,
2013-02-18 18:21:00,50.0,39.0,29.91,SW,219,7.0,16.0,67,0.00,,,0.00,,2013-02-19 02:21:00,
2013-02-18 18:33:00,49.0,39.0,29.91,SW,235,4.0,11.0,68,0.00,,,0.00,,2013-02-19 02:33:00,
2013-02-18 18:41:00,49.0,39.0,29.91,SW,235,4.0,11.0,68,0.00,,,0.00,,2013-02-19 02:41:00,
2013-02-18 18:52:00,49.0,40.0,29.91,WSW,239,5.0,12.0,70,0.00,,,0.00,,2013-02-19 02:52:00,
2013-02-18 19:03:00,49.0,40.0,29.91,WSW,245,4.0,11.0,71,0.00,,,0.00,,2013-02-19 03:03:00,
2013-02-18 19:11:00,49.0,40.0,29.91,WSW,245,4.0,11.0,71,0.00,,,0.00,,2013-02-19 03:11:00,
2013-02-18 19:21:00,48.0,39.0,29.91,WSW,256,4.0,12.0,71,0.00,,,0.00,,2013-02-19 03:21:00,
2013-02-18 19:32:00,48.0,39.0,29.91,SW,236,5.0,14.0,71,0.00,,,0.00,,2013-02-19 03:32:00,
2013-02-18 19:42:00,48.0,39.0,29.91,SW,236,5.0,14.0,71,0.00,,,0.00,,2013-02-19 03:42:00,
2013-02-18 19:52:00,48.0,39.0,29.91,SSW,198,5.0,11.0,70,0.00,,,0.00,,2013-02-19 03:52:00,
2013-02-18 20:02:00,48.0,39.0,29.91,SW,229,3.0,12.0,71,0.00,,,0.00,,2013-02-19 04:02:00,
2013-02-18 20:11:00,48.0,39.0,29.91,SW,229,3.0,12.0,71,0.00,,,0.00,,2013-02-19 04:11:00,
2013-02-18 20:21:00,48.0,39.0,29.91,SSE,163,3.0,9.0,71,0.00,,,0.00,,2013-02-19 04:21:00,
2013-02-18 20:32:00,48.0,39.0,29.92,SW,225,3.0,8.0,72,0.00,,,0.00,,2013-02-19 04:32:00,
2013-02-18 20:42:00,48.0,39.0,29.92,SW,225,3.0,8.0,72,0.00,,,0.00,,2013-02-19 04:42:00,
2013-02-18 20:52:00,48.0,40.0,29.92,SE,145,5.0,11.0,73,0.00,,,0.00,,2013-02-19 04:52:00,
2013-02-18 21:01:00,48.0,40.0,29.92,SW,225,2.0,8.0,73,0.00,,,0.00,,2013-02-19 05:01:00,
2013-02-18 21:12:00,48.0,40.0,29.92,SW,225,2.0,8.0,73,0.00,,,0.00,,2013-02-19 05:12:00,
2013-02-18 21:22:00,48.0,40.0,29.92,SSW,195,4.0,11.0,74,0.00,,,0.00,,2013-02-19 05:22:00,
2013-02-18 21:32:00,48.0,40.0,29.92,SSE,164,3.0,8.0,74,0.00,,,0.00,,2013-02-19 05:32:00,
2013-02-18 21:42:00,48.0,40.0,29.92,SSE,164,3.0,8.0,74,0.00,,,0.00,,2013-02-19 05:42:00,
2013-02-18 21:52:00,48.0,40.0,29.92,SW,218,3.0,9.0,74,0.00,,,0.00,,2013-02-19 05:52:00,
2013-02-18 22:02:00,48.0,40.0,29.92,South,173,3.0,10.0,74,0.00,,,0.00,,2013-02-19 06:02:00,
2013-02-18 22:11:00,48.0,40.0,29.92,South,173,3.0,10.0,74,0.00,,,0.00,,2013-02-19 06:11:00,
2013-02-18 22:21:00,48.0,41.0,29.92,SSE,153,3.0,10.0,76,0.00,,,0.00,,2013-02-19 06:21:00,
2013-02-18 22:32:00,47.0,40.0,29.92,SSW,198,4.0,11.0,77,0.00,,,0.00,,2013-02-19 06:32:00,
2013-02-18 22:41:00,47.0,40.0,29.92,SSW,198,4.0,11.0,77,0.00,,,0.00,,2013-02-19 06:41:00,
2013-02-18 22:52:00,47.0,41.0,29.92,SSW,193,3.0,8.0,78,0.00,,,0.00,,2013-02-19 06:52:00,
2013-02-18 23:01:00,47.0,41.0,29.91,SSE,164,4.0,9.0,78,0.00,,,0.00,,2013-02-19 07:01:00,
2013-02-18 23:11:00,47.0,41.0,29.91,SSE,164,4.0,9.0,78,0.00,,,0.00,,2013-02-19 07:11:00,
2013-02-18 23:21:00,46.0,40.0,29.91,SW,221,3.0,9.0,78,0.00,,,0.00,,2013-02-19 07:21:00,
2013-02-18 23:32:00,46.0,40.0,29.91,South,180,3.0,9.0,78,0.00,,,0.00,,2013-02-19 07:32:00,
2013-02-18 23:41:00,46.0,40.0,29.91,South,180,3.0,9.0,78,0.00,,,0.00,,2013-02-19 07:41:00,
2013-02-18 23:51:00,46.0,40.0,29.91,SSW,204,4.0,9.0,78,0.00,,,0.00,,2013-02-19 07:51:00,